| time (UTC) | temp C | wind direction | speed KPH | gust KPH | rain 1hr cm | rain 24hr cm | rain mn cm | humidity % | barometer mb |
| 20260906014904 | 10 | 0 | 1.6 | 3.2 | 0.00 | 0.00 | 0.00 | 92 | 1008.4 |
| 20260906014405 | 10 | 0 | 0.0 | 0.0 | 0.00 | 0.00 | 0.00 | 92 | 1008.3 |
| 20260906013905 | 10 | 0 | 0.0 | 0.0 | 0.00 | 0.00 | 0.00 | 91 | 1008.3 |
| 20260906013626 | 10 | 0 | 0.0 | 0.0 | 0.00 | 0.00 | 0.00 | 91 | 1008.2 |
| 20260906012905 | 10 | 0 | 0.0 | 0.0 | 0.00 | 0.00 | 0.00 | 91 | 1008.2 |
| 20260906012404 | 10 | 0 | 0.0 | 0.0 | 0.00 | 0.00 | 0.00 | 91 | 1008.1 |
| 20260906011905 | 10 | 0 | 0.0 | 0.0 | 0.00 | 0.00 | 0.00 | 91 | 1008.0 |
| 20260906011405 | 10 | 0 | 0.0 | 0.0 | 0.00 | 0.00 | 0.00 | 91 | 1007.9 |
| 20260906010905 | 10 | 0 | 0.0 | 0.0 | 0.00 | 0.00 | 0.00 | 91 | 1007.9 |
| 20260906010405 | 10 | 0 | 0.0 | 0.0 | 0.00 | 0.00 | 0.00 | 90 | 1007.8 |
| 20260906005905 | 10 | 0 | 0.0 | 1.6 | 0.00 | 0.00 | 0.00 | 90 | 1007.7 |
| 20260906005404 | 11 | 0 | 0.0 | 1.6 | 0.00 | 0.00 | 0.00 | 90 | 1007.7 |
| 20260906004905 | 11 | 0 | 0.0 | 3.2 | 0.00 | 0.00 | 0.00 | 90 | 1007.7 |
| 20260906004405 | 11 | 0 | 0.0 | 3.2 | 0.00 | 0.00 | 0.00 | 89 | 1007.6 |
| 20260906003904 | 11 | 0 | 0.0 | 1.6 | 0.00 | 0.00 | 0.00 | 90 | 1007.5 |
| 20260906003404 | 11 | 0 | 0.0 | 0.0 | 0.00 | 0.00 | 0.00 | 89 | 1007.4 |
| 20260906002905 | 11 | 0 | 0.0 | 0.0 | 0.00 | 0.00 | 0.00 | 89 | 1007.4 |
| 20260906002405 | 11 | 0 | 0.0 | 1.6 | 0.00 | 0.00 | 0.00 | 89 | 1007.4 |
| 20260906002133 | 11 | 0 | 0.0 | 3.2 | 0.00 | 0.00 | 0.00 | 89 | 1007.2 |
| 20260906001406 | 11 | 0 | 0.0 | 4.8 | 0.00 | 0.00 | 0.00 | 89 | 1007.2 |
| 20260906000905 | 11 | 0 | 1.6 | 4.8 | 0.00 | 0.00 | 0.00 | 89 | 1007.0 |
| 20260906000405 | 11 | 0 | 0.0 | 6.4 | 0.00 | 0.00 | 0.00 | 89 | 1006.9 |
| 20260905235904 | 11 | 0 | 3.2 | 6.4 | 0.00 | 0.00 | 0.00 | 89 | 1006.8 |
| 20260905235841 | 11 | 0 | 0.0 | 4.8 | 0.00 | 0.00 | 0.00 | 89 | 1006.7 |
| 20260905234905 | 11 | 0 | 1.6 | 6.4 | 0.00 | 0.00 | 0.00 | 89 | 1006.7 |
| 20260905234405 | 11 | 0 | 3.2 | 6.4 | 0.00 | 0.00 | 0.00 | 88 | 1006.7 |
| 20260905233905 | 12 | 0 | 3.2 | 6.4 | 0.00 | 0.00 | 0.00 | 88 | 1006.6 |
| 20260905233625 | 12 | 0 | 3.2 | 8.0 | 0.00 | 0.00 | 0.00 | 88 | 1006.5 |
| 20260905232902 | 12 | 10 | 3.2 | 8.0 | 0.00 | 0.00 | 0.00 | 88 | 1006.5 |
| 20260905232402 | 12 | 0 | 1.6 | 4.8 | 0.00 | 0.00 | 0.00 | 88 | 1006.5 |
| 20260905232122 | 12 | 0 | 1.6 | 4.8 | 0.00 | 0.00 | 0.00 | 88 | 1006.5 |
| 20260905231403 | 12 | 0 | 1.6 | 4.8 | 0.00 | 0.00 | 0.00 | 88 | 1006.3 |
| 20260905230902 | 12 | 0 | 3.2 | 8.0 | 0.00 | 0.00 | 0.00 | 88 | 1006.3 |
| 20260905230403 | 12 | 0 | 3.2 | 8.0 | 0.00 | 0.00 | 0.00 | 88 | 1006.2 |
| 20260905225902 | 12 | 24 | 1.6 | 8.0 | 0.00 | 0.00 | 0.00 | 88 | 1006.1 |
| 20260905225402 | 12 | 24 | 4.8 | 8.0 | 0.00 | 0.00 | 0.00 | 88 | 1006.0 |
| 20260905224903 | 12 | 35 | 3.2 | 11.3 | 0.00 | 0.00 | 0.00 | 88 | 1005.9 |
| 20260905224402 | 12 | 0 | 4.8 | 11.3 | 0.00 | 0.00 | 0.00 | 88 | 1006.0 |
| 20260905223902 | 12 | 0 | 4.8 | 9.7 | 0.00 | 0.00 | 0.00 | 88 | 1005.8 |
| 20260905223402 | 12 | 17 | 1.6 | 9.7 | 0.00 | 0.00 | 0.00 | 88 | 1005.7 |
| 20260905222902 | 12 | 4 | 3.2 | 4.8 | 0.00 | 0.00 | 0.00 | 88 | 1005.7 |
| 20260905222403 | 12 | 353 | 1.6 | 6.4 | 0.00 | 0.00 | 0.00 | 88 | 1005.7 |
| 20260905221904 | 12 | 0 | 1.6 | 6.4 | 0.00 | 0.00 | 0.00 | 87 | 1005.5 |
| 20260905221403 | 12 | 0 | 1.6 | 6.4 | 0.00 | 0.00 | 0.00 | 87 | 1005.5 |
| 20260905220903 | 12 | 8 | 4.8 | 6.4 | 0.00 | 0.00 | 0.00 | 87 | 1005.4 |
| 20260905220627 | 12 | 0 | 4.8 | 6.4 | 0.00 | 0.00 | 0.00 | 87 | 1005.3 |
| 20260905215904 | 12 | 8 | 3.2 | 8.0 | 0.00 | 0.00 | 0.00 | 87 | 1005.2 |
| 20260905215403 | 12 | 7 | 4.8 | 8.0 | 0.00 | 0.00 | 0.00 | 86 | 1005.2 |
| 20260905214904 | 12 | 0 | 3.2 | 8.0 | 0.00 | 0.00 | 0.00 | 86 | 1005.1 |
| 20260905214404 | 12 | 348 | 4.8 | 8.0 | 0.00 | 0.00 | 0.00 | 86 | 1005.1 |
| 20260905213903 | 12 | 23 | 4.8 | 8.0 | 0.00 | 0.00 | 0.00 | 86 | 1005.1 |
| 20260905213404 | 12 | 11 | 3.2 | 9.7 | 0.00 | 0.00 | 0.00 | 85 | 1005.0 |
| 20260905212904 | 12 | 4 | 3.2 | 9.7 | 0.00 | 0.00 | 0.00 | 85 | 1004.9 |
| 20260905212405 | 12 | 45 | 6.4 | 9.7 | 0.00 | 0.00 | 0.00 | 85 | 1004.9 |
| 20260905211903 | 12 | 25 | 3.2 | 9.7 | 0.00 | 0.00 | 0.00 | 85 | 1004.8 |
| 20260905211403 | 12 | 25 | 3.2 | 9.7 | 0.00 | 0.00 | 0.00 | 84 | 1004.8 |
| 20260905210903 | 12 | 28 | 4.8 | 11.3 | 0.00 | 0.00 | 0.00 | 84 | 1004.7 |
| 20260905210404 | 12 | 3 | 6.4 | 11.3 | 0.00 | 0.00 | 0.00 | 84 | 1004.7 |
| 20260905205905 | 13 | 8 | 4.8 | 9.7 | 0.00 | 0.00 | 0.00 | 84 | 1004.6 |
| 20260905205405 | 13 | 24 | 6.4 | 9.7 | 0.00 | 0.00 | 0.00 | 84 | 1004.5 |
| 20260905204904 | 13 | 34 | 6.4 | 9.7 | 0.00 | 0.00 | 0.00 | 83 | 1004.4 |
| 20260905204405 | 13 | 7 | 4.8 | 11.3 | 0.00 | 0.00 | 0.00 | 83 | 1004.3 |
| 20260905204348 | 13 | 0 | 6.4 | 17.7 | 0.00 | 0.00 | 0.00 | 83 | 1004.3 |
| 20260905203405 | 13 | 0 | 4.8 | 17.7 | 0.00 | 0.00 | 0.00 | 83 | 1004.2 |
| 20260905202906 | 13 | 23 | 4.8 | 14.5 | 0.00 | 0.00 | 0.00 | 83 | 1004.1 |
| 20260905202405 | 13 | 27 | 6.4 | 14.5 | 0.00 | 0.00 | 0.00 | 83 | 1004.0 |
| 20260905201904 | 13 | 32 | 3.2 | 8.0 | 0.00 | 0.00 | 0.00 | 83 | 1004.0 |
| 20260905201629 | 13 | 0 | 1.6 | 9.7 | 0.00 | 0.00 | 0.00 | 83 | 1004.0 |
| 20260905200905 | 13 | 358 | 6.4 | 9.7 | 0.00 | 0.00 | 0.00 | 83 | 1004.0 |
| 20260905200404 | 12 | 355 | 3.2 | 6.4 | 0.00 | 0.00 | 0.00 | 84 | 1003.9 |
| 20260905195904 | 12 | 18 | 1.6 | 8.0 | 0.00 | 0.00 | 0.00 | 84 | 1003.9 |
| 20260905195405 | 12 | 348 | 3.2 | 8.0 | 0.00 | 0.00 | 0.00 | 84 | 1003.9 |
| 20260905195129 | 12 | 338 | 1.6 | 4.8 | 0.00 | 0.00 | 0.00 | 84 | 1003.7 |
| 20260905194405 | 13 | 343 | 3.2 | 6.4 | 0.00 | 0.00 | 0.00 | 84 | 1003.6 |
| 20260905193904 | 13 | 0 | 3.2 | 6.4 | 0.00 | 0.00 | 0.00 | 84 | 1003.6 |
| 20260905193405 | 13 | 338 | 3.2 | 6.4 | 0.00 | 0.00 | 0.00 | 84 | 1003.5 |
| 20260905193350 | 13 | 330 | 4.8 | 8.0 | 0.00 | 0.00 | 0.00 | 83 | 1003.5 |
| 20260905192405 | 13 | 309 | 3.2 | 8.0 | 0.00 | 0.00 | 0.00 | 83 | 1003.5 |
| 20260905191905 | 13 | 326 | 3.2 | 6.4 | 0.00 | 0.00 | 0.00 | 83 | 1003.4 |
| 20260905191404 | 13 | 330 | 4.8 | 6.4 | 0.00 | 0.00 | 0.00 | 83 | 1003.3 |
| 20260905191127 | 13 | 299 | 3.2 | 8.0 | 0.00 | 0.00 | 0.00 | 83 | 1003.3 |
| 20260905190405 | 13 | 300 | 3.2 | 8.0 | 0.00 | 0.00 | 0.00 | 83 | 1003.2 |
| 20260905185905 | 13 | 316 | 4.8 | 8.0 | 0.00 | 0.00 | 0.00 | 83 | 1003.2 |
| 20260905185404 | 13 | 314 | 3.2 | 6.4 | 0.00 | 0.00 | 0.00 | 83 | 1003.2 |
| 20260905184905 | 13 | 320 | 4.8 | 6.4 | 0.00 | 0.00 | 0.00 | 84 | 1003.0 |
| 20260905184404 | 13 | 312 | 3.2 | 6.4 | 0.00 | 0.00 | 0.00 | 84 | 1003.0 |
| 20260905184123 | 13 | 299 | 3.2 | 3.2 | 0.00 | 0.00 | 0.00 | 84 | 1002.9 |
| 20260905183842 | 13 | 298 | 1.6 | 3.2 | 0.00 | 0.00 | 0.00 | 85 | 1002.9 |
| 20260905183351 | 13 | 299 | 1.6 | 3.2 | 0.00 | 0.00 | 0.00 | 85 | 1002.9 |
| 20260905182856 | 13 | 298 | 0.0 | 1.6 | 0.00 | 0.00 | 0.00 | 85 | 1002.8 |
| 20260905181904 | 13 | 298 | 0.0 | 1.6 | 0.00 | 0.00 | 0.00 | 84 | 1002.8 |
| 20260905181405 | 13 | 299 | 0.0 | 0.0 | 0.00 | 0.00 | 0.00 | 83 | 1002.7 |
| 20260905180905 | 13 | 299 | 0.0 | 0.0 | 0.00 | 0.00 | 0.00 | 83 | 1002.7 |
| 20260905180845 | 13 | 299 | 0.0 | 0.0 | 0.00 | 0.00 | 0.00 | 83 | 1002.7 |
| 20260905180131 | 14 | 299 | 0.0 | 0.0 | 0.00 | 0.00 | 0.00 | 82 | 1002.6 |
| 20260905175404 | 14 | 299 | 0.0 | 0.0 | 0.00 | 0.00 | 0.00 | 82 | 1002.5 |
| 20260905174905 | 14 | 298 | 0.0 | 0.0 | 0.00 | 0.00 | 0.00 | 81 | 1002.4 |
| 20260905174404 | 14 | 299 | 0.0 | 0.0 | 0.00 | 0.00 | 0.00 | 81 | 1002.4 |
| 20260905173904 | 15 | 299 | 0.0 | 0.0 | 0.00 | 0.00 | 0.00 | 80 | 1002.3 |
| 20260905173404 | 15 | 299 | 0.0 | 3.2 | 0.00 | 0.00 | 0.00 | 79 | 1002.2 |
| 20260905172904 | 15 | 299 | 0.0 | 3.2 | 0.00 | 0.00 | 0.00 | 78 | 1002.1 |
| 20260905172404 | 15 | 299 | 1.6 | 1.6 | 0.00 | 0.00 | 0.00 | 77 | 1002.1 |
| 20260905171905 | 16 | 299 | 0.0 | 1.6 | 0.00 | 0.00 | 0.00 | 77 | 1002.0 |
| 20260905171405 | 16 | 299 | 0.0 | 1.6 | 0.00 | 0.00 | 0.00 | 76 | 1001.9 |
| 20260905170905 | 16 | 299 | 0.0 | 0.0 | 0.00 | 0.00 | 0.00 | 77 | 1002.0 |
| 20260905170405 | 16 | 299 | 0.0 | 1.6 | 0.00 | 0.00 | 0.00 | 77 | 1001.9 |
| 20260905165905 | 16 | 299 | 1.6 | 3.2 | 0.00 | 0.00 | 0.00 | 76 | 1001.9 |
| 20260905165404 | 16 | 299 | 0.0 | 3.2 | 0.00 | 0.00 | 0.00 | 76 | 1001.8 |
| 20260905164904 | 16 | 299 | 0.0 | 3.2 | 0.00 | 0.00 | 0.00 | 76 | 1001.8 |
| 20260905164405 | 16 | 299 | 0.0 | 3.2 | 0.00 | 0.00 | 0.00 | 78 | 1001.6 |
| 20260905163905 | 16 | 299 | 0.0 | 0.0 | 0.00 | 0.00 | 0.00 | 79 | 1001.5 |
| 20260905163404 | 16 | 299 | 0.0 | 0.0 | 0.00 | 0.00 | 0.00 | 80 | 1001.5 |
| 20260905162905 | 15 | 299 | 0.0 | 0.0 | 0.00 | 0.00 | 0.00 | 80 | 1001.5 |
| 20260905162404 | 15 | 299 | 0.0 | 0.0 | 0.00 | 0.00 | 0.00 | 80 | 1001.4 |
| 20260905161904 | 15 | 299 | 0.0 | 0.0 | 0.00 | 0.00 | 0.00 | 80 | 1001.3 |
| 20260905161405 | 15 | 299 | 0.0 | 3.2 | 0.00 | 0.00 | 0.00 | 80 | 1001.3 |
| 20260905160904 | 15 | 299 | 0.0 | 3.2 | 0.00 | 0.00 | 0.00 | 80 | 1001.3 |
| 20260905160405 | 15 | 299 | 0.0 | 4.8 | 0.00 | 0.00 | 0.00 | 79 | 1001.3 |
| 20260905155904 | 15 | 299 | 1.6 | 6.4 | 0.00 | 0.00 | 0.00 | 79 | 1001.2 |
| 20260905155404 | 15 | 299 | 3.2 | 6.4 | 0.00 | 0.00 | 0.00 | 79 | 1001.2 |
| 20260905154905 | 15 | 298 | 4.8 | 6.4 | 0.00 | 0.00 | 0.00 | 78 | 1001.1 |
| 20260905154404 | 15 | 310 | 1.6 | 4.8 | 0.00 | 0.00 | 0.00 | 77 | 1001.0 |
| 20260905153904 | 15 | 310 | 3.2 | 6.4 | 0.00 | 0.00 | 0.00 | 77 | 1001.0 |
| 20260905153405 | 15 | 307 | 3.2 | 8.0 | 0.00 | 0.00 | 0.00 | 77 | 1000.9 |
| 20260905152904 | 15 | 314 | 4.8 | 8.0 | 0.00 | 0.00 | 0.00 | 76 | 1000.9 |
| 20260905152404 | 15 | 300 | 3.2 | 6.4 | 0.00 | 0.00 | 0.00 | 76 | 1000.9 |
| 20260905151905 | 15 | 319 | 3.2 | 6.4 | 0.00 | 0.00 | 0.00 | 77 | 1000.8 |
| 20260905151404 | 15 | 306 | 4.8 | 6.4 | 0.00 | 0.00 | 0.00 | 77 | 1000.8 |
| 20260905151130 | 15 | 314 | 4.8 | 9.7 | 0.00 | 0.00 | 0.00 | 77 | 1000.8 |
| 20260905150404 | 15 | 299 | 4.8 | 9.7 | 0.00 | 0.00 | 0.00 | 78 | 1000.8 |
| 20260905150123 | 15 | 293 | 4.8 | 8.0 | 0.00 | 0.00 | 0.00 | 77 | 1000.7 |
| 20260905145405 | 15 | 317 | 3.2 | 8.0 | 0.00 | 0.00 | 0.00 | 79 | 1000.6 |
| 20260905144917 | 14 | 314 | 4.8 | 11.3 | 0.00 | 0.00 | 0.00 | 79 | 1000.6 |
| 20260905144628 | 14 | 290 | 3.2 | 11.3 | 0.00 | 0.00 | 0.00 | 78 | 1000.6 |
| 20260905143904 | 15 | 316 | 6.4 | 11.3 | 0.00 | 0.00 | 0.00 | 77 | 1000.6 |
| 20260905143633 | 15 | 310 | 4.8 | 14.5 | 0.00 | 0.00 | 0.00 | 77 | 1000.6 |
| 20260905142905 | 15 | 295 | 4.8 | 14.5 | 0.00 | 0.00 | 0.00 | 77 | 1000.5 |
| 20260905142405 | 15 | 338 | 9.7 | 20.9 | 0.00 | 0.00 | 0.00 | 74 | 1000.5 |
| 20260905142146 | 16 | 351 | 12.9 | 22.5 | 0.00 | 0.00 | 0.00 | 73 | 1000.3 |
| 20260905141405 | 16 | 313 | 9.7 | 22.5 | 0.00 | 0.00 | 0.00 | 72 | 1000.3 |
| 20260905140905 | 16 | 290 | 9.7 | 20.9 | 0.00 | 0.00 | 0.00 | 71 | 1000.3 |
| 20260905140405 | 16 | 274 | 9.7 | 16.1 | 0.00 | 0.00 | 0.00 | 70 | 1000.2 |
| 20260905135905 | 16 | 355 | 8.0 | 14.5 | 0.00 | 0.00 | 0.00 | 69 | 1000.0 |
| 20260905135405 | 16 | 316 | 6.4 | 16.1 | 0.00 | 0.00 | 0.00 | 69 | 1000.0 |
| 20260905134904 | 16 | 358 | 8.0 | 16.1 | 0.00 | 0.00 | 0.00 | 68 | 1000.0 |
| 20260905134625 | 16 | 34 | 6.4 | 17.7 | 0.00 | 0.00 | 0.00 | 68 | 1000.0 |
| 20260905133905 | 16 | 351 | 6.4 | 19.3 | 0.00 | 0.00 | 0.00 | 69 | 1000.0 |
| 20260905133405 | 16 | 320 | 9.7 | 19.3 | 0.00 | 0.00 | 0.00 | 68 | 999.8 |
| 20260905132904 | 17 | 10 | 11.3 | 16.1 | 0.00 | 0.00 | 0.00 | 66 | 999.9 |
| 20260905132634 | 17 | 269 | 6.4 | 19.3 | 0.00 | 0.00 | 0.00 | 66 | 999.7 |
| 20260905131904 | 17 | 258 | 4.8 | 19.3 | 0.00 | 0.00 | 0.00 | 68 | 999.6 |
| 20260905131404 | 17 | 282 | 9.7 | 19.3 | 0.00 | 0.00 | 0.00 | 67 | 999.5 |
| 20260905130903 | 17 | 320 | 9.7 | 19.3 | 0.00 | 0.00 | 0.00 | 66 | 999.6 |
| 20260905130627 | 17 | 310 | 9.7 | 14.5 | 0.00 | 0.00 | 0.00 | 65 | 999.5 |
| 20260905125903 | 17 | 303 | 8.0 | 17.7 | 0.00 | 0.00 | 0.00 | 64 | 999.5 |
| 20260905125632 | 17 | 329 | 8.0 | 19.3 | 0.00 | 0.00 | 0.00 | 66 | 999.5 |
| 20260905125123 | 17 | 292 | 9.7 | 20.9 | 0.00 | 0.00 | 0.00 | 66 | 999.4 |
| 20260905124403 | 17 | 276 | 8.0 | 20.9 | 0.00 | 0.00 | 0.00 | 67 | 999.4 |
| 20260905123903 | 17 | 285 | 4.8 | 22.5 | 0.00 | 0.00 | 0.00 | 67 | 999.3 |
| 20260905123403 | 17 | 314 | 12.9 | 22.5 | 0.00 | 0.00 | 0.00 | 66 | 999.3 |
| 20260905122904 | 17 | 323 | 6.4 | 22.5 | 0.00 | 0.00 | 0.00 | 68 | 999.2 |
| 20260905122404 | 17 | 317 | 12.9 | 22.5 | 0.00 | 0.00 | 0.00 | 67 | 999.2 |
| 20260905121903 | 16 | 271 | 6.4 | 20.9 | 0.00 | 0.00 | 0.00 | 66 | 999.2 |
| 20260905121404 | 17 | 292 | 9.7 | 20.9 | 0.00 | 0.00 | 0.00 | 65 | 999.1 |
| 20260905120903 | 17 | 310 | 9.7 | 27.4 | 0.00 | 0.00 | 0.00 | 65 | 999.1 |
| 20260905120403 | 17 | 0 | 8.0 | 27.4 | 0.00 | 0.00 | 0.00 | 66 | 999.1 |
| 20260905120350 | 18 | 313 | 9.7 | 16.1 | 0.00 | 0.00 | 0.00 | 63 | 999.1 |
| 20260905115403 | 18 | 341 | 8.0 | 19.3 | 0.00 | 0.00 | 0.00 | 63 | 999.0 |
| 20260905114905 | 17 | 296 | 11.3 | 19.3 | 0.00 | 0.00 | 0.00 | 65 | 998.9 |
| 20260905114404 | 17 | 321 | 8.0 | 22.5 | 0.00 | 0.00 | 0.00 | 64 | 998.9 |
| 20260905113904 | 17 | 323 | 9.7 | 22.5 | 0.00 | 0.00 | 0.00 | 64 | 998.8 |
| 20260905113404 | 17 | 348 | 8.0 | 17.7 | 0.00 | 0.00 | 0.00 | 63 | 998.9 |
| 20260905112903 | 17 | 271 | 9.7 | 17.7 | 0.00 | 0.00 | 0.00 | 64 | 998.8 |
| 20260905112403 | 17 | 289 | 8.0 | 20.9 | 0.00 | 0.00 | 0.00 | 64 | 998.7 |
| 20260905111903 | 17 | 275 | 9.7 | 20.9 | 0.00 | 0.00 | 0.00 | 64 | 998.6 |
| 20260905111846 | 17 | 299 | 12.9 | 20.9 | 0.00 | 0.00 | 0.00 | 63 | 998.7 |
| 20260905110903 | 17 | 288 | 11.3 | 20.9 | 0.00 | 0.00 | 0.00 | 63 | 998.7 |
| 20260905110403 | 17 | 303 | 9.7 | 20.9 | 0.00 | 0.00 | 0.00 | 63 | 998.7 |
| 20260905105903 | 17 | 292 | 12.9 | 25.7 | 0.00 | 0.00 | 0.00 | 64 | 998.4 |
| 20260905105404 | 17 | 204 | 9.7 | 25.7 | 0.00 | 0.00 | 0.00 | 66 | 998.4 |
| 20260905104903 | 17 | 320 | 12.9 | 19.3 | 0.00 | 0.00 | 0.00 | 66 | 998.4 |
| 20260905104403 | 17 | 313 | 9.7 | 14.5 | 0.00 | 0.00 | 0.00 | 66 | 998.3 |
| 20260905104131 | 17 | 259 | 6.4 | 14.5 | 0.00 | 0.00 | 0.00 | 67 | 998.3 |
| 20260905103403 | 16 | 343 | 8.0 | 14.5 | 0.00 | 0.00 | 0.00 | 66 | 998.2 |
| 20260905103127 | 16 | 279 | 8.0 | 11.3 | 0.00 | 0.00 | 0.00 | 66 | 998.2 |
| 20260905102403 | 16 | 326 | 9.7 | 16.1 | 0.00 | 0.00 | 0.00 | 71 | 998.1 |
| 20260905101904 | 17 | 307 | 11.3 | 16.1 | 0.00 | 0.00 | 0.00 | 71 | 998.1 |
| 20260905101845 | 17 | 18 | 9.7 | 16.1 | 0.00 | 0.00 | 0.00 | 71 | 998.1 |
| 20260905100904 | 16 | 10 | 6.4 | 8.0 | 0.00 | 0.00 | 0.00 | 70 | 998.1 |
| 20260905100403 | 16 | 329 | 4.8 | 16.1 | 0.00 | 0.00 | 0.00 | 70 | 997.9 |
| 20260905095903 | 16 | 296 | 16.1 | 16.1 | 0.00 | 0.00 | 0.00 | 70 | 997.9 |
| 20260905095622 | 16 | 313 | 11.3 | 16.1 | 0.00 | 0.00 | 0.00 | 70 | 997.8 |
| 20260905094905 | -17 | 319 | 9.7 | 11.3 | 0.00 | 0.00 | 0.00 | 997.9 | |
| 20260905094404 | 16 | 0 | 3.2 | 14.5 | 0.00 | 0.00 | 0.00 | 73 | 997.8 |
| 20260905093904 | 16 | 358 | 9.7 | 14.5 | 0.00 | 0.00 | 0.00 | 73 | 997.8 |
| 20260905093404 | 16 | 350 | 6.4 | 9.7 | 0.00 | 0.00 | 0.00 | 73 | 997.8 |
| 20260905093122 | 16 | 13 | 3.2 | 17.7 | 0.00 | 0.00 | 0.00 | 73 | 997.8 |
| 20260905092404 | 16 | 312 | 8.0 | 17.7 | 0.00 | 0.00 | 0.00 | 73 | 997.8 |
| 20260905091903 | 16 | 4 | 8.0 | 14.5 | 0.00 | 0.00 | 0.00 | 73 | 997.7 |
| 20260905091403 | 16 | 32 | 4.8 | 11.3 | 0.00 | 0.00 | 0.00 | 76 | 997.7 |
| 20260905090903 | 16 | 358 | 6.4 | 11.3 | 0.00 | 0.00 | 0.00 | 75 | 997.6 |
| 20260905090403 | 15 | 300 | 6.4 | 9.7 | 0.00 | 0.00 | 0.00 | 76 | 997.7 |
| 20260905090121 | 15 | 323 | 6.4 | 9.7 | 0.00 | 0.00 | 0.00 | 77 | 997.6 |
| 20260905085404 | 15 | 0 | 3.2 | 11.3 | 0.00 | 0.00 | 0.00 | 79 | 997.5 |
| 20260905084904 | 15 | 357 | 4.8 | 11.3 | 0.00 | 0.00 | 0.00 | 80 | 997.6 |
| 20260905084403 | 15 | 351 | 8.0 | 14.5 | 0.00 | 0.00 | 0.00 | 79 | 997.5 |
| 20260905083903 | 15 | 0 | 8.0 | 14.5 | 0.00 | 0.00 | 0.00 | 81 | 997.4 |
| 20260905083404 | 15 | 0 | 6.4 | 11.3 | 0.00 | 0.00 | 0.00 | 81 | 997.4 |
| 20260905082903 | 14 | 317 | 6.4 | 16.1 | 0.00 | 0.00 | 0.00 | 84 | 997.4 |
| 20260905082403 | 14 | 333 | 8.0 | 16.1 | 0.00 | 0.00 | 0.00 | 84 | 997.3 |
| 20260905081903 | 13 | 321 | 4.8 | 14.5 | 0.00 | 0.00 | 0.00 | 86 | 997.3 |
| 20260905081401 | 13 | 0 | 6.4 | 14.5 | 0.00 | 0.00 | 0.00 | 87 | 997.3 |
| 20260905081355 | 13 | 0 | 4.8 | 9.7 | 0.00 | 0.00 | 0.00 | 87 | 997.2 |
| 20260905080624 | 13 | 28 | 3.2 | 9.7 | 0.00 | 0.00 | 0.00 | 88 | 997.3 |
| 20260905075904 | 13 | 343 | 0.0 | 9.7 | 0.00 | 0.00 | 0.00 | 88 | 997.1 |
| 20260905075404 | 13 | 357 | 4.8 | 9.7 | 0.00 | 0.00 | 0.00 | 89 | 997.1 |
| 20260905074903 | 13 | 7 | 3.2 | 9.7 | 0.00 | 0.00 | 0.00 | 89 | 997.0 |
| 20260905074403 | 13 | 323 | 4.8 | 8.0 | 0.00 | 0.00 | 0.00 | 89 | 997.0 |
| 20260905073904 | 12 | 331 | 4.8 | 9.7 | 0.00 | 0.00 | 0.00 | 89 | 997.0 |
| 20260905073624 | 12 | 302 | 4.8 | 14.5 | 0.00 | 0.00 | 0.00 | 90 | 996.9 |
| 20260905072904 | 12 | 319 | 6.4 | 14.5 | 0.00 | 0.00 | 0.00 | 90 | 996.7 |
| 20260905072633 | 12 | 316 | 4.8 | 8.0 | 0.00 | 0.00 | 0.00 | 91 | 996.7 |
| 20260905071903 | 12 | 0 | 3.2 | 8.0 | 0.00 | 0.00 | 0.00 | 91 | 996.7 |
| 20260905071404 | 12 | 312 | 4.8 | 8.0 | 0.00 | 0.00 | 0.00 | 91 | 996.6 |
| 20260905070903 | 12 | 323 | 1.6 | 8.0 | 0.00 | 0.00 | 0.00 | 90 | 996.6 |
| 20260905070403 | 12 | 338 | 1.6 | 8.0 | 0.00 | 0.00 | 0.00 | 90 | 996.5 |
| 20260905065903 | 12 | 298 | 3.2 | 11.3 | 0.00 | 0.00 | 0.00 | 90 | 996.5 |
| 20260905065403 | 12 | 285 | 3.2 | 11.3 | 0.00 | 0.00 | 0.00 | 90 | 996.3 |
| 20260905064903 | 12 | 17 | 3.2 | 6.4 | 0.00 | 0.00 | 0.00 | 90 | 996.3 |
| 20260905064403 | 12 | 17 | 1.6 | 9.7 | 0.00 | 0.00 | 0.00 | 90 | 996.3 |
| 20260905063903 | 12 | 0 | 1.6 | 9.7 | 0.00 | 0.00 | 0.00 | 90 | 996.1 |
| 20260905063403 | 12 | 4 | 1.6 | 3.2 | 0.00 | 0.00 | 0.00 | 91 | 996.1 |
| 20260905062903 | 12 | 4 | 1.6 | 6.4 | 0.00 | 0.00 | 0.00 | 91 | 996.1 |
| 20260905062629 | 12 | 4 | 0.0 | 6.4 | 0.00 | 0.00 | 0.00 | 91 | 996.0 |
| 20260905061903 | 12 | 21 | 3.2 | 6.4 | 0.00 | 0.00 | 0.00 | 91 | 996.0 |
| 20260905061404 | 12 | 3 | 3.2 | 6.4 | 0.00 | 0.00 | 0.00 | 91 | 995.9 |
| 20260905061354 | 12 | 144 | 0.0 | 4.8 | 0.00 | 0.00 | 0.00 | 91 | 995.9 |
| 20260905060402 | 12 | 21 | 0.0 | 4.8 | 0.00 | 0.00 | 0.00 | 91 | 995.8 |
| 20260905055903 | 12 | 21 | 0.0 | 4.8 | 0.00 | 0.00 | 0.00 | 92 | 995.8 |
| 20260905055404 | 11 | 24 | 1.6 | 6.4 | 0.00 | 0.00 | 0.00 | 92 | 995.7 |
| 20260905054904 | 11 | 24 | 1.6 | 6.4 | 0.00 | 0.00 | 0.00 | 92 | 995.6 |
| 20260905054404 | 11 | 24 | 1.6 | 6.4 | 0.00 | 0.00 | 0.00 | 92 | 995.6 |
| 20260905053904 | 11 | 25 | 0.0 | 6.4 | 0.00 | 0.00 | 0.00 | 92 | 995.6 |
| 20260905053401 | 11 | 24 | 3.2 | 6.4 | 0.00 | 0.00 | 0.00 | 92 | 995.6 |
| 20260905052901 | 11 | 24 | 4.8 | 6.4 | 0.00 | 0.00 | 0.00 | 92 | 995.5 |
| 20260905052401 | 11 | 24 | 3.2 | 6.4 | 0.00 | 0.00 | 0.00 | 92 | 995.5 |
| 20260905051902 | 11 | 25 | 1.6 | 6.4 | 0.00 | 0.00 | 0.00 | 92 | 995.4 |
| 20260905051358 | 11 | 34 | 1.6 | 8.0 | 0.00 | 0.00 | 0.00 | 92 | 995.5 |
| 20260905050859 | 11 | 20 | 3.2 | 9.7 | 0.00 | 0.00 | 0.00 | 92 | 995.4 |
| 20260905050357 | 11 | 30 | 4.8 | 8.0 | 0.00 | 0.00 | 0.00 | 92 | 995.4 |
| 20260905045857 | 11 | 35 | 1.6 | 6.4 | 0.00 | 0.00 | 0.00 | 92 | 995.4 |
| 20260905045620 | 11 | 35 | 1.6 | 6.4 | 0.00 | 0.00 | 0.00 | 92 | 995.3 |
| 20260905044857 | 11 | 35 | 1.6 | 9.7 | 0.00 | 0.00 | 0.00 | 92 | 995.3 |
| 20260905044350 | 11 | 37 | 3.2 | 9.7 | 0.00 | 0.00 | 0.00 | 92 | 995.2 |
| 20260905043847 | 11 | 20 | 1.6 | 6.4 | 0.00 | 0.00 | 0.00 | 92 | 995.1 |
| 20260905043347 | 11 | 35 | 1.6 | 6.4 | 0.00 | 0.00 | 0.00 | 92 | 995.1 |
| 20260905043054 | 11 | 30 | 3.2 | 6.4 | 0.00 | 0.00 | 0.00 | 92 | 995.1 |
| 20260905042332 | 11 | 30 | 0.0 | 6.4 | 0.00 | 0.00 | 0.00 | 92 | 995.0 |
| 20260905041832 | 11 | 6 | 1.6 | 6.4 | 0.00 | 0.00 | 0.00 | 92 | 995.1 |
| 20260905041551 | 11 | 0 | 0.0 | 6.4 | 0.00 | 0.00 | 0.00 | 92 | 995.1 |
| 20260905040831 | 11 | 350 | 3.2 | 8.0 | 0.00 | 0.00 | 0.00 | 91 | 995.0 |
| 20260905040332 | 11 | 0 | 1.6 | 8.0 | 0.00 | 0.00 | 0.00 | 91 | 994.9 |
| 20260905035832 | 11 | 23 | 4.8 | 8.0 | 0.00 | 0.00 | 0.00 | 92 | 994.9 |
| 20260905035331 | 11 | 358 | 1.6 | 4.8 | 0.00 | 0.00 | 0.00 | 92 | 994.9 |
| 20260905034830 | 11 | 17 | 3.2 | 6.4 | 0.00 | 0.00 | 0.00 | 92 | 994.8 |
| 20260905034323 | 11 | 17 | 0.0 | 6.4 | 0.00 | 0.00 | 0.00 | 92 | 994.8 |
| 20260905034042 | 11 | 13 | 1.6 | 4.8 | 0.00 | 0.00 | 0.00 | 92 | 994.7 |
| 20260905033321 | 11 | 44 | 0.0 | 3.2 | 0.00 | 0.00 | 0.00 | 92 | 994.7 |
| 20260905032816 | 11 | 44 | 0.0 | 4.8 | 0.00 | 0.00 | 0.00 | 92 | 994.7 |
| 20260905032317 | 11 | 44 | 0.0 | 6.4 | 0.00 | 0.00 | 0.00 | 92 | 994.7 |
| 20260905031817 | 11 | 44 | 1.6 | 6.4 | 0.00 | 0.00 | 0.00 | 93 | 994.6 |
| 20260905031318 | 11 | 44 | 3.2 | 6.4 | 0.00 | 0.00 | 0.00 | 93 | 994.6 |
| 20260905030812 | 11 | 44 | 3.2 | 6.4 | 0.00 | 0.00 | 0.00 | 93 | 994.6 |
| 20260905030313 | 11 | 44 | 3.2 | 6.4 | 0.00 | 0.00 | 0.00 | 93 | 994.5 |
| 20260905025810 | 11 | 45 | 1.6 | 4.8 | 0.00 | 0.00 | 0.00 | 93 | 994.5 |
| 20260905025313 | 11 | 47 | 1.6 | 6.4 | 0.00 | 0.00 | 0.00 | 93 | 994.4 |
| 20260905024805 | 11 | 47 | 3.2 | 6.4 | 0.00 | 0.00 | 0.00 | 93 | 994.4 |
| 20260905024303 | 11 | 38 | 3.2 | 6.4 | 0.00 | 0.00 | 0.00 | 93 | 994.4 |
| 20260905023806 | 11 | 38 | 1.6 | 6.4 | 0.00 | 0.00 | 0.00 | 93 | 994.4 |
| 20260905023301 | 11 | 37 | 3.2 | 6.4 | 0.00 | 0.00 | 0.00 | 93 | 994.3 |
| 20260905022802 | 11 | 37 | 3.2 | 6.4 | 0.00 | 0.00 | 0.00 | 93 | 994.3 |
| 20260905022305 | 11 | 37 | 3.2 | 6.4 | 0.00 | 0.00 | 0.00 | 93 | 994.3 |
| 20260905021803 | 11 | 32 | 3.2 | 8.0 | 0.00 | 0.00 | 0.00 | 93 | 994.2 |
| 20260905021303 | 11 | 34 | 6.4 | 9.7 | 0.00 | 0.00 | 0.00 | 93 | 994.2 |
| 20260905020802 | 11 | 51 | 6.4 | 9.7 | 0.00 | 0.00 | 0.00 | 93 | 994.1 |
| 20260905020302 | 11 | 25 | 6.4 | 9.7 | 0.00 | 0.00 | 0.00 | 93 | 994.0 |
| 20260905015802 | 11 | 39 | 3.2 | 9.7 | 0.00 | 0.00 | 0.00 | 93 | 994.0 |
| 20260905015306 | 11 | 59 | 4.8 | 9.7 | 0.00 | 0.00 | 0.00 | 93 | 994.0 |